QPF
0.00 0.00 0.00 0.00 0.00 0.00 0.00 0.00 0.00 0.00 0.00 0.00 0.00 0.00 0.00 0.00 0.00 0.00 0.00 0.00 0.00 0.00 0.00 0.00 0.00 0.00 0.00 0.00 0.00 0.00 0.00 0.00 0.00 0.00 0.00 0.00 0.00 0.00 0.00 0.00 0.00 0.00 0.00
0.00 0.00 0.00 0.00 0.00 0.00 0.00 0.00 0.00 0.00 0.00 0.00 0.00 0.00 0.00 0.00 0.00 0.00 0.00 0.00 0.00 0.00 0.00 0.00 0.00 0.00 0.00 0.00 0.00 0.00 0.00 0.00 0.00 0.00 0.00 0.00 0.00 0.00 0.00 0.00 0.00 0.00 0.00
0.00 0.00 0.00 0.00 0.00 0.00 0.00 0.00 0.00 0.00 0.00 0.00 0.00 0.00 0.00 0.00 0.00 0.00 0.00 0.00 0.00 0.00 0.00 0.00 0.00 0.00 0.00 0.00 0.00 0.00 0.00 0.00 0.00 0.00 0.00 0.00 0.00 0.00 0.00 0.00 0.00 0.00 0.00
0.00 0.00 0.00 0.00 0.00 0.00 0.00 0.00 0.00 0.00 0.00 0.00 0.00 0.00 0.00 0.00 0.00 0.00 0.00 0.00 0.00 0.00 0.00 0.00 0.00 0.00 0.00 0.00 0.00 0.00 0.00 0.00 0.00 0.00 0.00 0.00 0.00 0.00 0.00 0.00 0.00 0.00 0.00
0.00 0.00 0.00 0.00 0.00 0.00 0.00 0.00 0.00 0.00 0.00 0.00 0.00 0.00 0.00 0.00 0.00 0.00 0.00 0.00 0.00 0.00 0.00 0.00 0.00 0.00 0.00 0.00 0.00 0.00 0.00 0.00 0.00 0.00 0.00 0.00 0.00 0.00 0.00 0.00 0.00 0.00 0.00
0.00 0.00 0.00 0.00 0.00 0.00 0.00 0.00 0.00 0.00 0.00 0.00 0.00 0.00 0.00 0.00 0.00 0.00 0.00 0.00 0.00 0.00 0.00 0.00 0.00 0.00 0.00 0.00 0.00 0.00 0.00 0.00 0.00 0.00 0.00 0.00 0.00 0.00 0.00 0.00 0.00 0.00 0.00
0.00 0.00 0.00 0.00 0.00 0.00 0.00 0.00 0.00 0.00 0.00 0.00 0.00 0.00 0.00 0.00 0.00 0.00 0.00 0.00 0.00 0.00 0.00 0.00 0.00 0.00 0.00 0.00 0.00 0.00 0.00 0.00 0.00 0.00 0.00 0.00 0.00 0.00 0.00 0.00 0.00 0.00 0.00
0.00 0.00 0.00 0.00 0.00 0.00 0.00 0.00 0.00 0.00 0.00 0.00 0.00 0.00 0.00 0.00 0.00 0.00 0.00 0.00 0.00 0.00 0.00 0.00 0.00 0.00 0.00 0.00 0.00 0.00 0.00 0.00 0.00 0.00 0.00 0.00 0.00 0.00 0.00 0.00 0.00 0.00 0.00
0.00 0.00 0.00 0.00 0.00 0.00 0.00 0.00 0.00 0.00 0.00 0.00 0.00 0.00 0.00 0.00 0.00 0.00 0.00 0.00 0.00 0.00 0.00 0.00 0.00 0.00 0.00 0.00 0.00 0.00 0.00 0.00 0.00 0.00 0.00 0.00 0.00 0.00 0.00 0.00 0.00 0.00 0.00
0.00 0.00 0.00 0.00 0.00 0.00 0.00 0.00 0.00 0.00 0.00 0.00 0.00 0.00 0.00 0.00 0.00 0.00 0.00 0.00 0.00 0.00 0.00 0.00 0.00 0.00 0.00 0.00 0.00 0.00 0.00 0.00 0.00 0.00 0.00 0.00 0.00 0.00 0.00 0.00 0.00 0.00 0.00
0.00 0.00 0.00 0.00 0.00 0.00 0.00 0.00 0.00 0.00 0.00 0.00 0.00 0.00 0.00 0.00 0.00 0.00 0.00 0.00 0.00 0.00 0.00 0.00 0.00 0.00 0.00 0.00 0.00 0.00 0.00 0.00 0.00 0.00 0.00 0.00 0.00 0.00 0.00 0.00 0.00 0.00 0.00
0.00 0.00 0.00 0.00 0.00 0.00 0.00 0.00 0.00 0.00 0.00 0.00 0.00 0.00 0.00 0.00 0.00 0.00 0.00 0.00 0.00 0.00 0.00 0.00 0.00 0.00 0.00 0.00 0.00 0.00 0.00 0.00 0.00 0.00 0.00 0.00 0.00 0.00 0.00 0.00 0.00 0.00 0.00
0.00 0.00 0.00 0.00 0.00 0.00 0.00 0.00 0.00 0.00 0.00 0.00 0.00 0.00 0.00 0.00 0.00 0.00 0.00 0.00 0.00 0.00 0.00 0.00 0.00 0.00 0.00 0.00 0.00 0.00 0.00 0.00 0.00 0.00 0.00 0.00 0.00 0.00 0.00 0.00 0.00 0.00 0.00
0.00 0.00 0.00 0.00 0.00 0.00 0.00 0.00 0.00 0.00 0.00 0.00 0.00 0.00 0.00 0.00 0.00 0.00 0.00 0.00 0.00 0.00 0.00 0.00 0.00 0.00 0.00 0.00 0.00 0.00 0.00 0.00 0.00 0.00 0.00 0.00 0.00 0.00 0.00 0.00 0.00 0.00 0.00
0.00 0.00 0.00 0.00 0.00 0.00 0.00 0.00 0.00 0.00 0.00 0.00 0.00 0.00 0.00 0.00 0.00 0.00 0.00 0.00 0.00 0.00 0.00 0.00 0.00 0.00 0.00 0.00 0.00 0.00 0.00 0.00 0.00 0.00 0.00 0.00 0.00 0.00 0.00 0.00 0.00 0.00 0.00
0.00 0.00 0.00 0.00 0.00 0.00 0.00 0.00 0.00 0.00 0.00 0.00 0.00 0.00 0.00 0.00 0.00 0.00 0.00 0.00 0.00 0.00 0.00 0.00 0.00 0.00 0.00 0.00 0.00 0.00 0.00 0.00 0.00 0.00 0.00 0.00 0.00 0.00 0.00 0.00 0.00 0.00 0.00
0.00 0.00 0.00 0.00 0.00 0.00 0.00 0.00 0.00 0.00 0.00 0.00 0.00 0.00 0.00 0.00 0.00 0.00 0.00 0.00 0.00 0.00 0.00 0.00 0.00 0.00 0.00 0.00 0.00 0.00 0.00 0.00 0.00 0.00 0.00 0.00 0.00 0.00 0.00 0.00 0.00 0.00 0.00
0.00 0.00 0.00 0.00 0.00 0.00 0.00 0.00 0.00 0.00 0.00 0.00 0.00 0.00 0.00 0.00 0.00 0.00 0.00 0.01 0.00 0.00 0.00 0.00 0.00 0.00 0.00 0.00 0.00 0.00 0.00 0.00 0.00 0.00 0.00 0.00 0.00 0.00 0.00 0.00 0.00 0.00 0.00
0.00 0.00 0.00 0.00 0.00 0.00 0.00 0.00 0.00 0.00 0.00 0.00 0.00 0.00 0.00 0.00 0.00 0.00 0.00 0.00 0.00 0.00 0.00 0.00 0.00 0.00 0.00 0.00 0.00 0.00 0.00 0.00 0.00 0.00 0.00 0.00 0.00 0.00 0.00 0.00 0.00 0.00 0.00
0.00 0.00 0.00 0.00 0.00 0.00 0.00 0.00 0.00 0.00 0.00 0.00 0.00 0.00 0.00 0.00 0.00 0.00 0.00 0.00 0.00 0.00 0.00 0.00 0.00 0.00 0.00 0.00 0.00 0.00 0.00 0.00 0.00 0.00 0.00 0.00 0.00 0.00 0.00 0.00 0.00 0.00 0.00
0.00 0.00 0.00 0.00 0.00 0.00 0.00 0.00 0.00 0.00 0.00 0.00 0.00 0.00 0.00 0.00 0.00 0.00 0.00 0.00 0.00 0.00 0.00 0.00 0.00 0.00 0.00 0.00 0.00 0.00 0.00 0.00 0.00 0.00 0.00 0.00 0.00 0.00 0.00 0.00 0.00 0.00 0.00
0.00 0.00 0.00 0.00 0.00 0.00 0.00 0.00 0.00 0.00 0.00 0.00 0.00 0.00 0.00 0.00 0.00 0.00 0.00 0.00 0.00 0.00 0.00 0.00 0.00 0.00 0.00 0.00 0.00 0.00 0.00 0.00 0.00 0.00 0.00 0.00 0.00 0.00 0.00 0.00 0.00 0.00 0.00
0.00 0.00 0.00 0.00 0.00 0.00 0.00 0.00 0.00 0.00 0.00 0.00 0.00 0.00 0.00 0.00 0.00 0.00 0.00 0.00 0.00 0.00 0.00 0.00 0.00 0.00 0.00 0.00 0.00 0.00 0.00 0.00 0.00 0.00 0.00 0.00 0.00 0.00 0.00 0.00 0.00 0.00 0.00
0.00 0.00 0.00 0.00 0.00 0.00 0.00 0.00 0.00 0.00 0.00 0.00 0.00 0.00 0.00 0.00 0.00 0.00 0.00 0.00 0.00 0.00 0.00 0.00 0.00 0.00 0.00 0.00 0.00 0.00 0.00 0.00 0.00 0.00 0.00 0.00 0.00 0.00 0.00 0.00 0.00 0.00 0.00
0.00 0.00 0.00 0.00 0.00 0.00 0.00 0.00 0.00 0.00 0.00 0.00 0.00 0.00 0.00 0.00 0.00 0.00 0.00 0.00 0.00 0.00 0.00 0.00 0.00 0.00 0.00 0.00 0.00 0.00 0.00 0.00 0.00 0.00 0.00 0.00 0.00 0.00 0.00 0.00 0.00 0.00 0.00
0.00 0.00 0.00 0.00 0.00 0.00 0.00 0.00 0.00 0.00 0.00 0.00 0.00 0.00 0.00 0.00 0.00 0.00 0.00 0.00 0.00 0.00 0.00 0.00 0.00 0.00 0.00 0.00 0.00 0.00 0.00 0.00 0.00 0.00 0.00 0.00 0.00 0.00 0.00 0.00 0.00 0.00 0.00
MSLP
1028.69 1028.09 1027.80 1027.44 1027.19 1026.81 1026.80 1026.41 1025.97 1025.54 1024.98 1024.08 1023.10 1022.83 1022.42 1021.92 1021.40 1021.34 1021.23 1021.02 1021.04 1020.89 1020.85 1020.66 1020.70 1020.89 1020.90 1020.97 1021.09 1021.22 1021.67 1021.94 1022.49 1023.22 1023.47 1023.60 1023.74 1023.97 1024.07 1024.33 1024.41 1024.39 1024.98
1028.70 1028.67 1028.36 1027.81 1027.43 1027.24 1027.16 1026.88 1026.22 1025.53 1025.11 1024.71 1024.04 1023.50 1023.19 1022.67 1022.23 1021.81 1021.58 1021.34 1021.05 1020.93 1020.63 1020.68 1020.81 1020.82 1020.89 1020.92 1021.12 1021.45 1021.75 1022.00 1022.43 1023.11 1023.50 1023.74 1023.73 1023.94 1024.11 1024.45 1024.50 1024.45 1024.90
1029.62 1029.16 1028.94 1028.42 1027.90 1027.90 1027.66 1027.34 1026.95 1026.35 1025.61 1025.03 1024.66 1024.19 1023.79 1023.37 1023.08 1022.47 1021.98 1021.51 1021.39 1021.16 1020.73 1020.91 1020.85 1020.83 1021.11 1021.05 1021.20 1021.37 1021.83 1022.15 1022.55 1022.98 1023.40 1023.74 1023.92 1024.03 1024.37 1024.54 1024.64 1024.65 1024.72
1031.08 1030.51 1030.16 1029.60 1029.00 1028.47 1027.90 1027.73 1027.37 1026.99 1026.45 1025.89 1025.32 1025.01 1024.50 1023.98 1023.45 1023.10 1022.54 1021.96 1021.84 1021.81 1021.64 1021.50 1021.04 1020.98 1021.11 1021.14 1021.29 1021.33 1021.79 1022.25 1022.66 1022.91 1023.20 1023.61 1023.78 1023.93 1024.02 1024.23 1024.53 1024.63 1024.78
1032.02 1031.87 1031.65 1031.14 1030.20 1029.40 1028.44 1027.75 1027.53 1027.27 1026.82 1026.79 1025.87 1025.27 1024.85 1024.32 1023.73 1023.13 1022.75 1022.62 1022.36 1022.11 1021.85 1021.49 1021.33 1021.20 1021.15 1021.18 1021.16 1021.24 1021.50 1022.01 1022.45 1022.77 1023.06 1023.50 1023.66 1023.64 1023.84 1023.89 1024.21 1024.48 1024.40
1032.58 1032.47 1032.04 1031.46 1030.85 1030.27 1029.39 1028.49 1027.78 1027.30 1027.02 1026.95 1026.29 1025.64 1025.04 1024.49 1023.90 1023.39 1023.10 1023.19 1022.96 1022.54 1022.03 1021.66 1021.41 1021.16 1021.16 1021.26 1021.31 1021.33 1021.37 1021.77 1022.15 1022.45 1022.76 1023.04 1023.18 1023.30 1023.46 1023.63 1024.03 1024.42 1024.66
1033.33 1032.87 1032.29 1031.77 1031.23 1030.69 1030.03 1029.30 1028.53 1027.85 1027.28 1026.90 1026.28 1025.87 1025.22 1024.72 1024.13 1023.50 1023.20 1023.12 1023.28 1022.80 1022.35 1022.04 1021.69 1021.47 1021.42 1021.37 1021.40 1021.39 1021.38 1021.49 1021.68 1022.08 1022.54 1022.66 1022.68 1022.84 1023.01 1023.45 1023.82 1023.89 1024.15
1034.30 1033.68 1032.99 1032.34 1031.71 1031.12 1030.46 1029.79 1029.02 1028.38 1027.66 1027.06 1026.36 1025.85 1025.39 1024.69 1024.22 1023.72 1023.29 1023.15 1022.85 1022.73 1022.68 1022.27 1021.95 1021.68 1021.48 1021.48 1021.39 1021.42 1021.59 1021.82 1021.91 1022.02 1022.31 1022.33 1022.20 1022.27 1022.74 1023.02 1023.31 1023.71 1024.13
1034.78 1034.20 1033.60 1032.96 1032.16 1031.53 1030.90 1030.17 1029.38 1028.53 1027.80 1026.93 1026.28 1025.93 1025.59 1024.76 1024.29 1023.72 1023.44 1023.19 1023.15 1023.12 1022.88 1022.61 1022.25 1021.94 1021.58 1021.49 1021.41 1021.67 1021.71 1022.01 1021.96 1022.02 1022.09 1022.09 1021.99 1022.17 1022.59 1023.20 1023.49 1023.75 1023.99
1034.66 1034.05 1033.58 1033.10 1032.51 1031.79 1031.10 1030.32 1029.55 1028.77 1027.79 1027.03 1026.43 1025.93 1025.48 1024.93 1024.24 1023.70 1023.46 1023.27 1023.42 1023.11 1022.80 1022.59 1022.10 1021.79 1021.48 1021.43 1021.44 1021.68 1021.90 1021.98 1022.16 1022.56 1022.80 1022.89 1022.69 1022.40 1022.59 1022.99 1023.38 1023.80 1024.09
1034.79 1034.14 1033.51 1033.10 1032.62 1031.91 1030.99 1030.29 1029.50 1028.60 1027.66 1026.94 1026.33 1025.70 1025.30 1024.98 1024.20 1023.57 1023.26 1023.20 1023.40 1023.12 1022.81 1022.50 1022.23 1021.86 1021.46 1021.46 1021.32 1021.57 1021.74 1021.94 1022.35 1022.58 1023.03 1023.40 1023.38 1023.18 1023.33 1023.57 1023.59 1023.67 1023.92
1034.88 1034.31 1033.76 1033.15 1032.58 1031.80 1031.07 1030.19 1029.59 1028.70 1027.75 1027.06 1026.30 1025.50 1025.04 1024.79 1024.24 1023.64 1023.26 1023.04 1023.05 1023.15 1023.12 1022.62 1022.31 1021.94 1021.59 1021.51 1021.44 1021.44 1021.71 1021.96 1022.37 1022.79 1023.17 1023.64 1023.82 1023.99 1024.09 1023.96 1023.99 1024.11 1024.32
1035.08 1034.55 1033.85 1033.16 1032.49 1031.82 1031.20 1030.27 1029.76 1028.92 1028.13 1027.37 1026.66 1025.80 1025.02 1024.65 1024.31 1023.73 1023.27 1022.90 1022.78 1022.98 1022.99 1022.76 1022.45 1022.02 1021.81 1021.66 1021.55 1021.48 1021.57 1021.99 1022.53 1022.93 1023.12 1023.77 1024.03 1024.16 1024.32 1024.36 1024.59 1024.64 1024.78
1035.41 1034.73 1033.95 1033.19 1032.56 1031.96 1031.38 1030.77 1030.01 1029.27 1028.55 1027.88 1027.16 1026.32 1025.46 1024.75 1024.31 1023.87 1023.50 1023.13 1023.05 1022.77 1022.88 1023.06 1022.90 1022.38 1021.98 1021.79 1021.54 1021.46 1021.69 1022.04 1022.36 1022.71 1023.06 1023.64 1024.16 1024.51 1024.56 1024.62 1024.84 1025.21 1025.25
1035.62 1034.86 1034.11 1033.45 1032.83 1032.13 1031.49 1030.87 1030.13 1029.50 1028.94 1027.99 1027.32 1026.77 1025.96 1025.01 1024.47 1023.73 1023.24 1022.90 1022.75 1022.73 1022.83 1023.00 1023.09 1022.86 1022.61 1022.14 1021.82 1021.83 1021.87 1022.16 1022.48 1022.72 1023.16 1023.66 1024.08 1024.45 1024.74 1024.78 1025.03 1025.28 1025.49
1035.67 1034.89 1034.24 1033.65 1032.96 1032.25 1031.46 1030.58 1030.14 1029.25 1028.51 1027.83 1027.06 1026.44 1025.69 1025.09 1024.45 1023.57 1022.78 1022.44 1022.39 1022.52 1023.01 1023.34 1023.31 1023.43 1023.32 1022.77 1022.29 1022.17 1022.11 1022.25 1022.47 1022.79 1023.18 1023.60 1024.04 1024.50 1024.83 1024.92 1025.06 1025.16 1025.54
1035.74 1034.89 1034.14 1033.51 1032.92 1032.33 1031.61 1030.92 1029.96 1029.06 1028.66 1027.89 1027.19 1026.37 1025.64 1025.03 1024.32 1023.61 1022.86 1022.31 1021.90 1022.00 1022.34 1023.07 1023.44 1023.45 1023.48 1023.30 1022.73 1022.58 1022.24 1022.14 1022.29 1022.65 1023.09 1023.56 1023.91 1024.35 1024.69 1024.89 1025.08 1025.26 1025.59
1035.36 1034.70 1034.09 1033.39 1032.87 1032.28 1031.65 1030.98 1030.39 1029.71 1028.78 1027.88 1027.58 1026.95 1026.08 1025.21 1024.44 1023.63 1022.94 1022.47 1021.80 1021.27 1022.02 1022.78 1023.26 1023.56 1023.74 1023.76 1023.29 1022.76 1022.46 1022.19 1022.33 1022.59 1022.98 1023.35 1023.65 1023.90 1024.33 1024.67 1025.03 1025.23 1025.58
1034.95 1034.16 1033.58 1033.10 1032.58 1032.05 1031.52 1030.94 1030.33 1029.71 1029.09 1028.34 1027.58 1026.84 1026.48 1025.45 1024.51 1023.83 1023.33 1022.89 1022.33 1021.42 1021.41 1022.39 1022.73 1023.05 1023.23 1023.27 1023.24 1022.97 1022.57 1022.36 1022.25 1022.35 1022.61 1023.01 1023.37 1023.69 1023.95 1024.31 1024.75 1025.15 1025.49
1034.39 1033.73 1033.04 1032.57 1032.05 1031.53 1031.08 1030.68 1030.12 1029.48 1028.80 1028.21 1027.68 1027.04 1026.34 1025.71 1024.81 1024.07 1023.52 1023.16 1022.61 1022.07 1020.95 1020.97 1021.79 1022.42 1022.77 1022.85 1022.90 1022.82 1022.41 1022.07 1022.02 1022.16 1022.38 1022.65 1022.99 1023.32 1023.62 1023.98 1024.40 1024.89 1025.35
1034.18 1033.42 1032.80 1032.21 1031.70 1031.22 1030.68 1030.16 1029.62 1029.06 1028.40 1027.77 1027.21 1026.61 1025.91 1025.07 1024.44 1024.00 1023.53 1023.19 1022.82 1022.36 1021.88 1021.79 1021.81 1021.82 1022.18 1022.42 1022.55 1022.57 1022.32 1021.81 1021.65 1021.80 1022.05 1022.37 1022.64 1023.02 1023.26 1023.61 1023.96 1024.43 1025.14
1033.68 1033.11 1032.60 1032.16 1031.40 1030.76 1030.24 1029.66 1029.05 1028.51 1027.88 1027.22 1026.49 1026.01 1025.41 1025.01 1024.57 1024.06 1023.68 1023.41 1023.10 1022.62 1021.92 1021.72 1021.61 1021.66 1021.81 1022.05 1022.09 1022.15 1022.02 1021.68 1021.29 1021.29 1021.61 1021.98 1022.29 1022.61 1022.96 1023.34 1023.69 1024.22 1024.90
1033.23 1032.83 1032.19 1031.55 1031.03 1030.38 1029.70 1029.08 1028.58 1027.98 1027.30 1026.59 1025.89 1025.36 1024.97 1024.66 1024.19 1023.72 1023.31 1023.08 1023.03 1022.72 1021.99 1021.77 1021.64 1021.46 1021.51 1021.48 1021.44 1021.52 1021.45 1021.28 1021.10 1020.76 1021.11 1021.55 1021.95 1022.27 1022.63 1023.01 1023.43 1023.86 1024.49
1032.82 1032.47 1031.99 1031.30 1030.60 1029.99 1029.34 1028.57 1027.92 1027.28 1026.73 1026.01 1025.20 1024.58 1024.07 1023.76 1023.50 1023.08 1022.74 1022.49 1022.48 1022.16 1021.77 1021.40 1021.21 1021.03 1021.05 1020.98 1020.93 1020.89 1020.92 1020.70 1020.29 1020.41 1020.59 1021.01 1021.41 1021.81 1022.26 1022.65 1023.10 1023.53 1023.89
1032.14 1031.83 1031.42 1030.90 1030.22 1029.50 1028.81 1028.07 1027.31 1026.63 1026.01 1025.32 1024.60 1024.00 1023.37 1022.88 1022.61 1022.31 1021.97 1021.71 1021.40 1021.51 1021.11 1020.70 1020.52 1020.27 1020.28 1020.44 1020.68 1020.63 1020.52 1020.40 1020.34 1020.08 1020.21 1020.56 1020.92 1021.30 1021.77 1022.23 1022.67 1023.23 1023.72
1031.23 1031.00 1030.69 1030.19 1029.64 1028.99 1028.28 1027.46 1026.65 1025.86 1025.23 1024.52 1023.85 1023.23 1022.72 1022.21 1021.70 1021.41 1021.13 1020.93 1020.84 1020.74 1020.39 1020.05 1019.84 1019.73 1019.68 1019.74 1019.89 1020.06 1020.13 1020.12 1020.16 1020.03 1019.83 1020.13 1020.54 1020.92 1021.36 1021.81 1022.32 1022.87 1023.44
Thickness
5312 5319 5324 5329 5334 5338 5342 5348 5355 5363 5371 5383 5394 5400 5407 5413 5421 5425 5430 5434 5436 5441 5446 5452 5455 5457 5460 5463 5466 5470 5471 5472 5473 5468 5470 5472 5474 5475 5476 5476 5478 5481 5476
5301 5304 5308 5315 5321 5325 5329 5335 5343 5351 5359 5366 5376 5384 5390 5397 5405 5413 5418 5422 5427 5432 5439 5441 5444 5448 5451 5455 5457 5459 5462 5464 5463 5463 5462 5464 5468 5469 5470 5469 5471 5473 5471
5284 5289 5293 5300 5307 5310 5315 5321 5328 5337 5344 5351 5358 5366 5373 5380 5387 5397 5405 5412 5414 5419 5427 5430 5433 5438 5441 5445 5448 5451 5452 5454 5455 5455 5455 5455 5458 5461 5460 5461 5462 5464 5465
5262 5268 5273 5281 5287 5294 5302 5307 5314 5322 5329 5336 5343 5348 5356 5363 5372 5381 5391 5399 5402 5404 5409 5415 5423 5427 5430 5435 5437 5443 5443 5444 5445 5447 5448 5448 5450 5452 5454 5456 5456 5457 5457
5243 5246 5249 5255 5265 5276 5285 5294 5301 5308 5316 5320 5330 5338 5344 5350 5357 5367 5377 5384 5389 5395 5400 5405 5411 5416 5421 5425 5430 5434 5436 5436 5437 5439 5441 5440 5442 5445 5447 5450 5451 5450 5452
5226 5228 5234 5241 5248 5256 5267 5277 5287 5295 5302 5307 5315 5324 5332 5339 5346 5353 5361 5367 5374 5383 5392 5398 5403 5408 5412 5416 5419 5423 5428 5429 5430 5433 5435 5437 5437 5440 5441 5444 5444 5444 5445
5208 5213 5219 5226 5233 5240 5248 5257 5268 5278 5286 5294 5303 5310 5319 5326 5333 5342 5350 5357 5362 5371 5380 5387 5393 5398 5401 5406 5410 5414 5418 5422 5425 5426 5427 5430 5433 5435 5438 5437 5437 5440 5441
5188 5192 5199 5207 5215 5222 5230 5239 5248 5258 5269 5280 5289 5297 5304 5314 5322 5330 5339 5346 5354 5361 5367 5375 5382 5388 5394 5397 5401 5405 5408 5410 5414 5419 5420 5424 5428 5431 5430 5431 5431 5432 5431
5174 5173 5177 5184 5193 5202 5211 5220 5231 5242 5253 5266 5276 5283 5290 5301 5308 5317 5325 5334 5341 5346 5354 5361 5369 5376 5384 5390 5394 5395 5399 5401 5406 5409 5412 5416 5420 5422 5424 5421 5422 5424 5426
5167 5165 5162 5164 5171 5181 5192 5203 5214 5225 5238 5250 5259 5269 5277 5286 5296 5305 5312 5319 5326 5336 5344 5351 5360 5368 5375 5381 5385 5387 5389 5394 5396 5397 5400 5405 5410 5415 5415 5417 5417 5417 5418
5159 5157 5154 5149 5152 5161 5174 5186 5199 5212 5225 5235 5246 5255 5263 5272 5283 5291 5299 5306 5312 5321 5330 5339 5347 5356 5366 5372 5378 5380 5384 5386 5387 5389 5391 5393 5399 5404 5406 5407 5409 5412 5413
5152 5148 5145 5142 5139 5146 5156 5170 5182 5196 5210 5220 5231 5243 5250 5258 5268 5278 5286 5294 5300 5306 5314 5325 5334 5343 5354 5361 5367 5373 5377 5378 5379 5379 5382 5385 5388 5391 5394 5399 5402 5403 5404
5144 5141 5139 5138 5137 5137 5142 5154 5165 5178 5191 5203 5215 5227 5237 5245 5254 5263 5272 5281 5288 5293 5300 5310 5320 5330 5340 5348 5356 5363 5368 5370 5371 5373 5377 5375 5378 5382 5386 5389 5391 5394 5395
5135 5134 5135 5134 5133 5133 5135 5139 5147 5158 5171 5183 5194 5208 5220 5230 5238 5247 5257 5266 5274 5282 5289 5294 5304 5315 5327 5336 5345 5352 5356 5360 5364 5367 5370 5369 5370 5372 5376 5380 5383 5383 5386
5131 5129 5128 5128 5127 5128 5130 5133 5138 5143 5152 5164 5177 5187 5198 5212 5220 5232 5244 5252 5260 5268 5275 5281 5289 5299 5308 5320 5330 5338 5344 5350 5354 5358 5360 5362 5364 5365 5368 5372 5374 5376 5379
5125 5123 5120 5120 5121 5123 5125 5129 5131 5137 5143 5151 5162 5172 5185 5196 5204 5216 5229 5241 5250 5258 5260 5270 5274 5284 5293 5301 5315 5324 5331 5338 5344 5349 5352 5354 5357 5359 5361 5365 5368 5372 5373
5118 5117 5115 5113 5114 5117 5119 5122 5126 5130 5134 5140 5147 5155 5165 5177 5188 5199 5212 5225 5239 5247 5253 5254 5264 5267 5276 5289 5299 5308 5320 5327 5335 5339 5343 5346 5349 5352 5355 5357 5363 5366 5367
5114 5111 5108 5106 5107 5110 5112 5115 5117 5120 5123 5129 5133 5138 5146 5155 5165 5178 5191 5204 5219 5236 5241 5241 5250 5253 5260 5270 5283 5296 5304 5315 5322 5328 5333 5338 5343 5348 5350 5352 5355 5359 5362
5113 5111 5107 5104 5105 5106 5107 5108 5109 5110 5112 5115 5117 5123 5128 5137 5147 5156 5165 5177 5193 5216 5228 5229 5231 5239 5248 5257 5267 5281 5293 5301 5310 5318 5325 5330 5336 5341 5345 5348 5351 5355 5357
5111 5109 5107 5105 5103 5102 5102 5101 5101 5102 5102 5103 5103 5104 5109 5117 5125 5134 5139 5149 5166 5185 5207 5219 5221 5227 5236 5245 5254 5265 5279 5292 5300 5307 5314 5321 5328 5334 5340 5343 5348 5350 5352
5108 5106 5103 5100 5097 5095 5093 5094 5095 5093 5093 5092 5092 5092 5095 5099 5108 5113 5118 5126 5139 5157 5176 5189 5200 5213 5223 5234 5243 5251 5263 5279 5290 5297 5304 5310 5318 5325 5333 5338 5343 5346 5347
5107 5102 5098 5094 5093 5090 5087 5087 5087 5086 5084 5082 5081 5078 5079 5081 5084 5090 5096 5105 5116 5131 5150 5167 5182 5196 5209 5220 5231 5241 5251 5263 5276 5287 5295 5302 5309 5317 5324 5331 5337 5340 5342
5103 5098 5095 5091 5087 5085 5084 5082 5081 5079 5077 5074 5071 5067 5064 5066 5071 5076 5083 5090 5099 5112 5126 5145 5160 5178 5193 5208 5221 5232 5240 5251 5265 5277 5285 5293 5301 5309 5316 5323 5329 5335 5337
5100 5094 5090 5087 5084 5081 5079 5077 5076 5073 5069 5067 5064 5060 5060 5061 5063 5068 5073 5080 5087 5099 5112 5127 5144 5160 5177 5193 5207 5220 5230 5241 5255 5266 5276 5284 5293 5301 5308 5316 5323 5328 5334
5098 5092 5087 5083 5080 5078 5076 5073 5070 5068 5064 5061 5058 5055 5055 5056 5057 5059 5065 5071 5078 5088 5102 5115 5130 5146 5161 5177 5191 5205 5218 5230 5243 5255 5267 5276 5285 5294 5301 5309 5317 5322 5327
5099 5092 5086 5082 5078 5074 5073 5071 5069 5067 5063 5060 5056 5053 5052 5053 5056 5058 5061 5065 5071 5081 5094 5107 5119 5134 5149 5164 5179 5192 5206 5220 5233 5245 5257 5267 5276 5285 5294 5302 5310 5316 5321